ISR272 EDDS-LLBG

Flight info

Callsign ISR272
Flight time N/A
Altitude 35000
Route ABTAL4B ABTAL L173 RIXED Y161 MAH DCT VAVOR DCT RADIZ DCT GORPA DCT DEVUL DCT REMSO DCT MEDUX UM867 KOGAT/N0428F370 DCT ERANA UL737 TSL UN130 MES UL609 ALKIS L609 ZUKKO
Aircraft A320/M-SDE2FGHIJ1LORVWY/SB1

Departure

Time 2026-05-07 17:38
Airport Stuttgart Airport (EDDS)

Arrival

Time N/A
Airport Ben Gurion International Airport (LLBG)
Time Latitude Longitude Altitude Speed Heading
2026-05-07 17:00 48.68924 9.19581 1315 ft 0 kts 344°
2026-05-07 17:22 48.68919 9.19583 1314 ft 3 kts 344°
2026-05-07 17:23 48.68897 9.19592 1312 ft 3 kts 344°
2026-05-07 17:23 48.68879 9.19601 1311 ft 3 kts 347°
2026-05-07 17:23 48.68866 9.19604 1310 ft 3 kts 14°
2026-05-07 17:23 48.68845 9.19580 1310 ft 3 kts 68°
2026-05-07 17:24 48.68842 9.19568 1310 ft 1 kts 74°
2026-05-07 17:30 48.68843 9.19576 1310 ft 2 kts 74°
2026-05-07 17:31 48.68851 9.19616 1309 ft 6 kts 74°
2026-05-07 17:31 48.68864 9.19688 1308 ft 9 kts 74°
2026-05-07 17:31 48.68886 9.19800 1304 ft 10 kts 73°
2026-05-07 17:31 48.68878 9.19874 1302 ft 6 kts 129°
2026-05-07 17:32 48.68823 9.19923 1297 ft 12 kts 124°
2026-05-07 17:32 48.68844 9.20064 1294 ft 16 kts 72°
2026-05-07 17:32 48.68878 9.20244 1290 ft 20 kts 75°
2026-05-07 17:32 48.68920 9.20466 1286 ft 24 kts 75°
2026-05-07 17:33 48.68970 9.20728 1277 ft 28 kts 74°
2026-05-07 17:33 48.69019 9.20983 1271 ft 25 kts 74°
2026-05-07 17:33 48.69070 9.21257 1266 ft 29 kts 74°
2026-05-07 17:33 48.69127 9.21554 1262 ft 31 kts 73°
2026-05-07 17:34 48.69184 9.21854 1258 ft 29 kts 73°
2026-05-07 17:34 48.69234 9.22120 1247 ft 28 kts 73°
2026-05-07 17:34 48.69289 9.22410 1242 ft 29 kts 74°
2026-05-07 17:34 48.69345 9.22705 1232 ft 30 kts 74°
2026-05-07 17:35 48.69398 9.22984 1226 ft 25 kts 73°
2026-05-07 17:35 48.69450 9.23256 1220 ft 28 kts 74°
2026-05-07 17:35 48.69506 9.23558 1214 ft 29 kts 75°
2026-05-07 17:35 48.69553 9.23803 1209 ft 21 kts 73°
2026-05-07 17:36 48.69596 9.24027 1204 ft 21 kts 74°
2026-05-07 17:36 48.69594 9.24198 1198 ft 18 kts 117°
2026-05-07 17:36 48.69520 9.24307 1191 ft 15 kts 161°
2026-05-07 17:36 48.69423 9.24348 1190 ft 8 kts 166°
2026-05-07 17:37 48.69393 9.24332 1190 ft 4 kts 249°
2026-05-07 17:37 48.69362 9.24169 1194 ft 44 kts 254°
2026-05-07 17:37 48.69217 9.23404 1209 ft 106 kts 254°
2026-05-07 17:37 48.68969 9.22103 1244 ft 151 kts 253°
2026-05-07 17:38 48.68675 9.20469 1643 ft 162 kts 259°
2026-05-07 17:38 48.68387 9.18840 2379 ft 161 kts 257°
2026-05-07 17:38 48.68075 9.17203 2976 ft 164 kts 255°
2026-05-07 17:38 48.67728 9.15445 3207 ft 185 kts 255°
2026-05-07 17:39 48.67337 9.13475 3382 ft 206 kts 256°
2026-05-07 17:39 48.66892 9.11293 3602 ft 228 kts 250°
2026-05-07 17:39 48.65908 9.09346 4035 ft 244 kts 211°
2026-05-07 17:39 48.64266 9.08737 4769 ft 250 kts 174°
2026-05-07 17:40 48.62649 9.09679 5556 ft 253 kts 146°
2026-05-07 17:40 48.61537 9.11725 6302 ft 258 kts 109°
2026-05-07 17:40 48.61257 9.14420 6896 ft 270 kts 88°
2026-05-07 17:40 48.61490 9.17329 7325 ft 285 kts 83°
2026-05-07 17:41 48.61692 9.20348 8007 ft 291 kts 85°
2026-05-07 17:41 48.61817 9.23422 8742 ft 295 kts 89°
2026-05-07 17:41 48.61836 9.26543 9488 ft 299 kts 91°
2026-05-07 17:41 48.61794 9.29703 10187 ft 303 kts 92°
2026-05-07 17:42 48.61725 9.32990 10437 ft 324 kts 93°
2026-05-07 17:42 48.61648 9.36505 10628 ft 344 kts 92°
2026-05-07 17:42 48.61576 9.40154 11140 ft 350 kts 92°
2026-05-07 17:42 48.61513 9.43856 11757 ft 354 kts 92°
2026-05-07 17:43 48.61455 9.47589 12383 ft 357 kts 91°
2026-05-07 17:43 48.61401 9.51356 13013 ft 360 kts 91°
2026-05-07 17:43 48.61349 9.55154 13650 ft 363 kts 91°
2026-05-07 17:43 48.61295 9.58982 14218 ft 366 kts 91°
2026-05-07 17:44 48.61239 9.62851 14707 ft 371 kts 91°
2026-05-07 17:44 48.61178 9.66765 15230 ft 374 kts 91°
2026-05-07 17:44 48.61034 9.70701 15743 ft 377 kts 100°
2026-05-07 17:44 48.60239 9.74468 16237 ft 378 kts 117°
2026-05-07 17:45 48.59072 9.78046 16753 ft 381 kts 118°
2026-05-07 17:45 48.57880 9.81639 17273 ft 384 kts 118°
2026-05-07 17:45 48.56663 9.85278 17794 ft 387 kts 118°
2026-05-07 17:45 48.55451 9.88895 18311 ft 390 kts 118°
2026-05-07 17:46 48.54222 9.92567 18786 ft 394 kts 118°
2026-05-07 17:46 48.52989 9.96266 19252 ft 396 kts 118°
2026-05-07 17:46 48.51746 9.99996 19728 ft 399 kts 118°
2026-05-07 17:46 48.50496 10.03742 20207 ft 401 kts 118°
2026-05-07 17:47 48.49236 10.07510 20665 ft 404 kts 118°
2026-05-07 17:47 48.47965 10.11306 21103 ft 406 kts 118°
2026-05-07 17:47 48.46687 10.15121 21540 ft 409 kts 118°
2026-05-07 17:47 48.45399 10.18955 21969 ft 412 kts 118°
2026-05-07 17:48 48.44101 10.22815 22397 ft 414 kts 118°
2026-05-07 17:48 48.42793 10.26692 22818 ft 417 kts 118°
2026-05-07 17:48 48.41474 10.30588 23231 ft 419 kts 118°
2026-05-07 17:48 48.40162 10.34458 23631 ft 422 kts 118°
2026-05-07 17:49 48.38805 10.38454 23978 ft 424 kts 118°
2026-05-07 17:49 48.37460 10.42416 24330 ft 426 kts 118°
2026-05-07 17:49 48.36111 10.46395 24682 ft 428 kts 118°
2026-05-07 17:49 48.34752 10.50397 25035 ft 430 kts 118°
2026-05-07 17:50 48.33402 10.54355 25376 ft 432 kts 118°
2026-05-07 17:50 48.32008 10.58434 25725 ft 434 kts 118°
2026-05-07 17:50 48.30643 10.62420 26060 ft 436 kts 118°
2026-05-07 17:50 48.29253 10.66478 26408 ft 438 kts 118°
2026-05-07 17:51 48.27854 10.70551 26736 ft 440 kts 118°
2026-05-07 17:51 48.26447 10.74640 27061 ft 442 kts 118°
2026-05-07 17:51 48.25033 10.78747 27384 ft 444 kts 118°
2026-05-07 17:51 48.23611 10.82870 27701 ft 446 kts 118°
2026-05-07 17:52 48.22178 10.87014 28029 ft 448 kts 118°
2026-05-07 17:52 48.20738 10.91169 28360 ft 450 kts 118°
2026-05-07 17:52 48.19291 10.95337 28687 ft 452 kts 118°
2026-05-07 17:52 48.17835 10.99523 29013 ft 454 kts 118°
2026-05-07 17:53 48.16376 11.03724 29394 ft 454 kts 118°
2026-05-07 17:53 48.14921 11.07913 29862 ft 453 kts 118°
2026-05-07 17:53 48.13467 11.12091 30292 ft 452 kts 118°
2026-05-07 17:53 48.12012 11.16256 30643 ft 452 kts 118°
2026-05-07 17:54 48.10552 11.20425 30966 ft 453 kts 118°
2026-05-07 17:54 48.09092 11.24594 31294 ft 453 kts 119°
2026-05-07 17:54 48.07629 11.28765 31642 ft 453 kts 119°
2026-05-07 17:54 48.06164 11.32935 31992 ft 453 kts 119°
2026-05-07 17:55 48.04693 11.37111 32334 ft 454 kts 119°
2026-05-07 17:55 48.03222 11.41284 32679 ft 454 kts 120°